Location: Darlington Observatory
(36.4817°N, 105.8156°W)
Time: 13:34:43
(UTC-06:00)

NOSS 3-3 (A) - Visible Passes

Search period start: 21 September 2017 00:00
Search period end: 01 October 2017 00:00
Orbit: 901 x 1311 km, 63.4° (Epoch: 10 September)

Date Brightness Start Highest point End Pass type
(mag) Time Alt. Az. Time Alt. Az. Time Alt. Az.
21 Sep 6.5 05:59:46 10° NNW 06:05:52 26° NE 06:12:17 10° E visible
22 Sep 6.7 05:15:38 10° N 05:20:33 18° NE 05:25:41 10° ENE visible
23 Sep 6.9 04:31:53 10° N 04:35:03 13° NNE 04:38:19 10° NE visible
23 Sep 5.6 06:20:40 10° NNW 06:27:55 48° NE 06:35:38 10° SE visible
24 Sep 6.2 05:36:15 10° NNW 05:42:53 33° NE 05:49:54 10° ESE visible
25 Sep 6.6 04:52:00 10° N 04:57:41 23° NE 05:03:40 10° E visible
25 Sep 4.9 20:33:09 10° S 20:36:11 26° SSE 20:36:11 26° SSE visible
25 Sep 6.4 22:23:36 10° WSW 22:36:53 - NNE 22:23:50 11° WSW visible
26 Sep 6.8 04:07:59 10° N 04:12:19 16° NE 04:16:49 10° ENE visible
26 Sep 5.1 05:57:18 10° NNW 06:04:47 61° NE 06:12:46 10° SE visible
26 Sep 5.1 19:50:02 10° SSE 19:54:10 19° ESE 19:55:47 18° E visible
26 Sep 4.4 21:38:22 10° SW 21:52:54 - NNE 21:43:28 55° W visible
26 Sep6.923:40:16N23:40:16N23:31:10WNWvisible
27 Sep 7.0 03:24:36 10° N 03:26:44 11° NNE 03:28:55 10° NE visible
27 Sep 5.7 05:12:48 10° NNW 05:19:51 41° NE 05:27:20 10° ESE visible
27 Sep 3.8 20:53:36 10° SSW 20:59:37 83° ESE 21:04:08 21° NE visible
27 Sep 6.2 22:46:58 10° W 22:51:25 20° NW 22:56:06 10° N visible
28 Sep 6.2 04:28:27 10° NNW 04:34:45 28° NE 04:41:25 10° ESE visible
28 Sep 4.6 06:18:44 10° NW 06:26:20 71° WSW 06:34:23 10° SSE visible
28 Sep 4.1 20:09:20 10° S 20:15:04 48° ESE 20:21:13 10° NE visible
28 Sep 5.7 22:00:54 10° WSW 22:06:12 29° NW 22:11:54 10° NNE visible
29 Sep 6.6 03:44:17 10° N 03:49:29 20° NE 03:54:57 10° E visible
29 Sep 4.7 05:33:59 10° NNW 05:41:36 78° ENE 05:49:43 10° SE visible
29 Sep 4.8 19:25:41 10° SSE 19:30:40 28° ESE 19:35:55 10° NE visible
29 Sep 4.9 21:15:23 10° WSW 21:21:11 45° NW 21:27:29 10° NNE visible
29 Sep 6.8 23:12:29 10° NW 23:14:04 11° NNW 23:15:41 10° NNW visible
30 Sep 6.9 03:00:24 10° N 03:04:03 14° NNE 03:07:47 10° ENE visible
30 Sep 5.2 04:49:24 10° NNW 04:56:45 53° NE 05:04:35 10° SE visible
30 Sep 4.1 20:30:19 10° SW 20:36:21 74° WNW 20:42:54 10° NNE visible
30 Sep 6.5 22:24:52 10° WNW 22:28:33 16° NW 22:32:24 10° N visible
